TimeCST,TemperatureF,Dew PointF,Humidity,Sea Level PressureIn,VisibilityMPH,Wind Direction,Wind SpeedMPH,Gust SpeedMPH,PrecipitationIn,Events,Conditions,WindDirDegrees,DateUTC
12:53 AM,37.0,30.9,79,29.84,10.0,WNW,15.0,26.5,N/A,,Overcast,290,2012-12-26 06:53:00
1:53 AM,37.0,30.9,79,29.87,10.0,WNW,20.7,27.6,N/A,,Overcast,300,2012-12-26 07:53:00
2:53 AM,37.0,30.9,79,29.90,10.0,WNW,18.4,27.6,N/A,,Overcast,300,2012-12-26 08:53:00
3:53 AM,37.0,30.0,76,29.93,10.0,NW,15.0,24.2,N/A,,Overcast,310,2012-12-26 09:53:00
4:53 AM,37.0,30.0,76,29.96,10.0,NW,18.4,27.6,N/A,,Overcast,310,2012-12-26 10:53:00
5:53 AM,37.9,30.0,73,29.99,10.0,NW,11.5,20.7,N/A,,Overcast,310,2012-12-26 11:53:00
6:33 AM,37.4,30.2,75,29.99,10.0,NW,11.5,20.7,N/A,,Overcast,310,2012-12-26 12:33:00
6:53 AM,37.0,32.0,82,30.04,10.0,NW,12.7,21.9,N/A,,Overcast,310,2012-12-26 12:53:00
7:53 AM,37.0,30.9,79,30.08,10.0,NW,11.5,23.0,N/A,,Overcast,310,2012-12-26 13:53:00
8:53 AM,37.0,30.9,79,30.11,10.0,NW,13.8,23.0,N/A,,Overcast,320,2012-12-26 14:53:00
9:53 AM,37.9,30.9,76,30.14,10.0,NW,15.0,20.7,N/A,,Overcast,310,2012-12-26 15:53:00
10:53 AM,37.0,32.0,82,30.15,9.0,WNW,10.4,-,N/A,,Overcast,300,2012-12-26 16:53:00
11:53 AM,37.9,30.0,73,30.15,10.0,NW,11.5,-,N/A,,Overcast,320,2012-12-26 17:53:00
12:53 PM,37.9,30.9,76,30.15,10.0,WNW,8.1,-,N/A,,Overcast,290,2012-12-26 18:53:00
1:53 PM,37.9,30.9,76,30.16,10.0,WNW,9.2,-,N/A,,Overcast,290,2012-12-26 19:53:00
2:53 PM,37.9,30.0,73,30.16,10.0,WNW,9.2,17.3,N/A,,Overcast,300,2012-12-26 20:53:00
3:53 PM,37.0,30.9,79,30.18,10.0,WNW,9.2,-,N/A,,Overcast,300,2012-12-26 21:53:00
4:53 PM,37.0,30.0,76,30.19,10.0,NW,8.1,19.6,N/A,,Overcast,320,2012-12-26 22:53:00
5:53 PM,37.0,28.9,73,30.20,10.0,NNW,4.6,-,N/A,,Overcast,330,2012-12-26 23:53:00
7:53 PM,37.0,28.9,73,30.23,10.0,Calm,Calm,-,N/A,,Overcast,0,2012-12-27 01:53:00
8:53 PM,37.0,30.0,76,30.24,10.0,North,8.1,-,N/A,,Overcast,360,2012-12-27 02:53:00
9:53 PM,35.1,28.0,76,30.23,10.0,NNE,9.2,-,N/A,,Scattered Clouds,30,2012-12-27 03:53:00
10:53 PM,33.1,28.0,82,30.23,10.0,NNE,6.9,-,N/A,,Clear,30,2012-12-27 04:53:00
11:53 PM,33.1,28.0,82,30.22,10.0,NE,4.6,-,N/A,,Clear,40,2012-12-27 05:53:00